754  
ASUS41 KGYX 300510  
RWRGYX  
WEATHER ROUNDUP FOR MAINE AND NEW HAMPSHIRE  
NATIONAL WEATHER SERVICE GRAY ME  
100 AM EDT THU MAY 30 2024  
 
* THESE REPORTS ARE NOT UNDER NWS QUALITY CONTROL AND/OR DO NOT  
REPORT WEATHER SUCH AS PRECIPITATION AND FOG.
 
 
MEZ002-005-006-010-012-015-018-020-021-024-026-027-029-300600-  
MAINE  
 
CITY SKY/WX TMP DP RH WIND PRES REMARKS
 
PORTLAND CLOUDY 54 48 80 CALM 29.95R  
SANFORD* CLOUDY 55 51 86 CALM 29.95R  
BAR HARBOR CLEAR 49 46 90 CALM 29.95R  
WISCASSET CLEAR 52 45 77 VRB3 29.95R  
ROCKLAND* CLEAR 57 47 69 NE6 29.94R  
FRYEBURG* PTCLDY 45 43 93 CALM 29.96R FOG  
LEWISTONAUBURN CLEAR N/A N/A N/A CALM 29.96R  
AUGUSTA CLEAR 53 42 66 N3 29.95S  
WATERVILLE* CLEAR 51 43 74 N5 29.93S  
BANGOR CLEAR 49 43 80 CALM 29.94S  
GREENVILLE N/A 45 41 86 CALM 29.93F  
MILLINOCKET CLEAR 46 44 93 CALM 29.97R  
HOULTON CLEAR 42 40 92 CALM 29.93S FOG  
PRESQUE ISLE CLEAR 40 40 100 CALM 29.94S FOG  
FRENCHVILLE CLEAR 43 38 82 NW5 29.92S  
CARIBOU CLEAR 43 40 89 W5 29.91F  

 
 
NHZ002-005-008-009-011-012-014-300600-  
NEW HAMPSHIRE  
 
CITY SKY/WX TMP DP RH WIND PRES REMARKS
 
PORTSMOUTH* MOCLDY 62 53 71 N6 29.92S  
ROCHESTER* CLOUDY 59 51 75 NW3 29.94R  
NASHUA MOCLDY 61 49 64 NW6 29.92F  
MANCHESTER MOCLDY 62 47 57 N7 29.91F  
CONCORD MOCLDY 54 49 83 MISG 29.94S  
LACONIA* CLEAR 51 48 89 CALM 29.96R  
BERLIN CLEAR 39 37 92 CALM 29.97S  
WHITEFIELD* CLEAR 39 38 96 CALM 29.98R  
JAFFREY* CLEAR 56 48 74 CALM 29.94F  
KEENE* PTCLDY 55 50 83 CALM 29.94S  
LEBANON* CLEAR 49 45 86 CALM 29.97R  
MT WASHINGTON* PTCLDY 36 0 21 W15 N/A  

 
 
VTZ005-007-008-300600-  
VERMONT  
 
CITY SKY/WX TMP DP RH WIND PRES REMARKS
 
ST JOHNSBURY* N/A 47 43 86 MISG 29.96S  
MONTPELIER CLEAR 44 40 85 CALM 30.02S  
BURLINGTON CLEAR 49 45 86 SE3 30.00R  

 
 
MAZ007-012-024-CTZ003-RIZ002-NYZ038-NYZ072-300600-  
SOUTHERN NEW ENGLAND AND NY  
 
CITY SKY/WX TMP DP RH WIND PRES REMARKS
 
BOSTON CLOUDY 60 57 89 NE7 29.90S  
WORCESTER LGT RAIN 62 48 60 N8 29.91F  
NANTUCKET CLEAR 57 56 96 S8 29.91F  
PROVIDENCE CLOUDY 64 56 75 CALM 29.88F  
HARTFORD CLOUDY 66 52 60 N8 29.88F  
ALBANY CLOUDY 60 48 64 NW8 29.94F  
NEW YORK CITY LGT RAIN 62 58 86 N7 29.88F  

 
 
ANZ081-ANZ082-ANZ150-NHZ014-MEZ023>029-300600-  
COASTAL MARINE OBSERVATIONS  
 
STATION/POSITION TIME TEMP WIND PRES WAVE
 
AIR SEA DIR/SP/G HT/PER  
(UTC) (F) (DEG/KT/KT) (MB) (FT/S)  
MOUNT DESERT ROC 0500 54 340/ 4/ 5 1013.2R  
MATINICUS ROCK* 0400 54 270/ 8/ 9 1013.3R  
ISLE OF SHOALS* 0400 61 20/ 3/ 3 1012.7R  
JEFFREYS LEDGE* 0456 59 N/A 4/ 8  
GEORGES BANK BUO 0450 55 52 300/ 2/ 4 1014.0F 5/ 7  

 
   
............KEY...........
 
 
WCI - WIND CHILL  
TC - TEMPERATURE IN CELSIUS  
VSB - VISIBILITY IN MILES  
HX - HEAT INDEX  
FAIR- INDICATES FEW OR NO CLOUDS BELOW 12,000 FT, WITH NO  
SIGNIFICANT WEATHER AND/OR S TO VISIBILITY.  
 
 
 
CLICK HERE TO GO TO PREVIOUS BULLETINS.

The Nexlab ME Page
The Nexlab NH Page Main Text Page